Weather History for Holdrege, NE

Change the Weather History Date:

Friday, March 22, 2013

  Actual Average Record
Temperature  
Mean Temperature 34 °F -  
Max Temperature 39 °F 54 °F 83 °F (1988)
Min Temperature 30 °F 27 °F 7 °F (1968)
Degree Days  
Heating Degree Days 30    
Moisture  
Dew Point 31 °F    
Average Humidity 90    
Maximum Humidity 96    
Minimum Humidity 78    
Precipitation  
Precipitation 0.00 in - - ()
Sea Level Pressure  
Sea Level Pressure 29.88 in    
Wind  
Wind Speed 7 mph (SE)    
Max Wind Speed 14 mph    
Max Gust Speed -    
Visibility 5 miles    
Events Snow    
Averages and records for this station are not official NWS values.
T = Trace of Precipitation, MM = Missing Value Source: NWS Daily Summary

Daily Weather History Graph

Daily Weather History Graph

Search for Another Location

Airport:

Trip Planner

Search our weather history database for the weather conditions in past years. The results will help you decide how hot, cold, wet, or windy it might be!

Date:

Astronomy

Mar. 22, 2013 Rise Set
Actual Time 7:36 AM CDT 7:51 PM CDT
Civil Twilight 7:09 AM CDT 8:19 PM CDT
Nautical Twilight 6:37 AM CDT 8:51 PM CDT
Astronomical Twilight 6:05 AM CDT 9:23 PM CDT
Moon 3:19 PM CDT (3/22) 4:39 AM CDT (3/22)
Length of Visible Light 13h 09m
Length of Day
12h 14m
Waxing Gibbous, 77% of the Moon is Illuminated
Mar 22
Waxing Gibbous
Mar 27
Full
Apr 2
Last Quarter
Apr 10
New
Apr 18
First Quarter

Hourly Weather History & Observations

Time (CDT) Temp. Windchill Dew Point Humidity Pressure Visibility Wind Dir Wind Speed Gust Speed Precip Events Conditions
12:15 AM 32.0 °F 24.8 °F 25.7 °F 78% 29.90 in 5.0 mi SE 8.1 mph - N/A Snow Light Snow
12:35 AM 31.5 °F 24.9 °F 26.6 °F 82% 29.90 in 3.0 mi ESE 6.9 mph - N/A Snow Light Snow
12:55 AM 31.1 °F 24.5 °F 27.9 °F 88% 29.90 in 2.0 mi SE 6.9 mph - N/A Snow Light Snow
1:15 AM 31.1 °F 24.5 °F 28.4 °F 90% 29.89 in 2.0 mi SE 6.9 mph - N/A Snow Light Snow
1:35 AM 30.7 °F 23.3 °F 28.4 °F 91% 29.88 in 2.0 mi SE 8.1 mph - N/A Snow Light Snow
1:55 AM 30.6 °F 23.1 °F 28.4 °F 92% 29.88 in 3.0 mi SE 8.1 mph - N/A Snow Light Snow
2:15 AM 30.6 °F 24.7 °F 28.8 °F 93% 29.89 in 5.0 mi SE 5.8 mph - N/A Snow Light Snow
2:35 AM 30.2 °F 23.4 °F 28.4 °F 93% 29.90 in 2.5 mi SE 6.9 mph - N/A Snow Light Snow
2:55 AM 30.6 °F 24.7 °F 28.8 °F 93% 29.89 in 3.0 mi SE 5.8 mph - N/A Snow Light Snow
3:15 AM 30.4 °F 24.5 °F 28.8 °F 94% 29.89 in 3.0 mi SSE 5.8 mph - N/A Snow Light Snow
3:35 AM 30.6 °F 27.1 °F 28.9 °F 94% 29.90 in 3.0 mi South 3.5 mph - N/A Snow Light Snow
3:55 AM 30.7 °F 27.3 °F 29.1 °F 94% 29.89 in 4.0 mi South 3.5 mph - N/A   Overcast
4:15 AM 31.1 °F 24.5 °F 29.5 °F 94% 29.89 in 5.0 mi South 6.9 mph - N/A   Overcast
4:35 AM 31.1 °F 25.4 °F 29.7 °F 94% 29.89 in 5.0 mi South 5.8 mph - N/A   Overcast
4:55 AM 31.5 °F 25.8 °F 29.7 °F 93% 29.87 in 5.0 mi South 5.8 mph - N/A   Overcast
5:15 AM 31.1 °F 24.5 °F 29.3 °F 93% 29.86 in 5.0 mi South 6.9 mph - N/A   Overcast
5:35 AM 31.1 °F 26.4 °F 29.3 °F 93% 29.86 in 5.0 mi SSE 4.6 mph - N/A   Overcast
5:55 AM 31.5 °F 25.8 °F 29.8 °F 94% 29.86 in 4.0 mi SSE 5.8 mph - N/A   Overcast
6:15 AM 31.5 °F 25.8 °F 29.8 °F 94% 29.86 in 4.0 mi SSE 5.8 mph - N/A   Overcast
6:35 AM 31.3 °F 25.6 °F 29.7 °F 94% 29.85 in 4.0 mi SSE 5.8 mph - N/A   Overcast
6:55 AM 31.1 °F 24.5 °F 29.8 °F 95% 29.85 in 3.0 mi SSE 6.9 mph - N/A   Overcast
7:15 AM 31.1 °F 23.7 °F 29.8 °F 95% 29.86 in 4.0 mi SSE 8.1 mph - N/A   Overcast
7:35 AM 31.1 °F 23.7 °F 29.7 °F 94% 29.85 in 4.0 mi SSE 8.1 mph - N/A   Overcast
7:55 AM 31.1 °F 24.5 °F 29.5 °F 94% 29.86 in 4.0 mi SE 6.9 mph - N/A   Overcast
8:15 AM 31.1 °F 23.7 °F 29.7 °F 94% 29.87 in 2.0 mi SSE 8.1 mph - N/A   Overcast
8:35 AM 30.4 °F 22.9 °F 28.9 °F 94% 29.87 in 1.2 mi SE 8.1 mph - N/A   Overcast
8:55 AM 30.2 °F 22.6 °F 28.8 °F 94% 29.86 in 1.0 mi SE 8.1 mph - N/A   Overcast
9:15 AM 30.6 °F 22.4 °F 29.3 °F 95% 29.87 in 1.0 mi SSE 9.2 mph - N/A   Overcast
9:35 AM 31.3 °F 22.1 °F 30.2 °F 96% 29.87 in 1.8 mi SSE 11.5 mph - N/A   Overcast
9:55 AM 31.5 °F 22.9 °F 30.2 °F 95% 29.87 in 1.8 mi SSE 10.4 mph - N/A   Overcast
10:15 AM 31.5 °F 23.5 °F 30.0 °F 94% 29.89 in 1.8 mi South 9.2 mph - N/A   Overcast
10:35 AM 32.0 °F 23.6 °F 30.4 °F 94% 29.89 in 2.0 mi South 10.4 mph - N/A   Overcast
10:55 AM 32.0 °F 23.6 °F 30.6 °F 94% 29.89 in 1.5 mi South 10.4 mph - N/A   Overcast
11:15 AM 32.0 °F 23.6 °F 31.1 °F 96% 29.89 in 2.0 mi South 10.4 mph - N/A   Overcast
11:35 AM 32.5 °F 25.5 °F 31.6 °F 96% 29.88 in 2.0 mi South 8.1 mph - N/A   Overcast
11:55 AM 32.9 °F 25.9 °F 31.8 °F 96% 29.88 in 2.5 mi South 8.1 mph - N/A   Overcast
12:15 PM 33.8 °F 27.7 °F 32.0 °F 93% 29.88 in 4.0 mi South 6.9 mph - N/A   Overcast
12:35 PM 34.2 °F 27.5 °F 32.2 °F 92% 29.88 in 4.0 mi South 8.1 mph - N/A   Overcast
12:55 PM 34.7 °F 28.1 °F 32.7 °F 92% 29.87 in 4.0 mi SSE 8.1 mph - N/A   Overcast
1:15 PM 35.6 °F 29.9 °F 32.9 °F 90% 29.88 in 5.0 mi South 6.9 mph - N/A   Overcast
1:35 PM 36.1 °F 30.6 °F 33.4 °F 90% 29.88 in 5.0 mi SSE 6.9 mph - N/A   Overcast
1:55 PM 36.3 °F 31.6 °F 33.3 °F 89% 29.87 in 5.0 mi SSE 5.8 mph - N/A   Overcast
2:15 PM 36.5 °F 30.3 °F 33.4 °F 89% 29.87 in 5.0 mi ESE 8.1 mph - N/A   Overcast
2:35 PM 36.9 °F 31.4 °F 33.8 °F 89% 29.86 in 7.0 mi ESE 6.9 mph - N/A   Overcast
2:55 PM 37.6 °F 32.3 °F 34.2 °F 87% 29.86 in 5.0 mi ESE 6.9 mph - N/A   Overcast
3:15 PM 37.9 °F 33.5 °F 34.5 °F 87% 29.85 in 7.0 mi ESE 5.8 mph - N/A   Overcast
3:35 PM 38.3 °F 33.9 °F 34.5 °F 86% 29.85 in 7.0 mi East 5.8 mph - N/A   Overcast
3:55 PM 38.8 °F 33.8 °F 34.9 °F 86% 29.85 in 7.0 mi East 6.9 mph - N/A   Overcast
4:15 PM 39.0 °F 34.8 °F 34.7 °F 84% 29.85 in 7.0 mi East 5.8 mph - N/A   Overcast
4:35 PM 39.4 °F 33.2 °F 34.7 °F 83% 29.85 in 7.0 mi East 9.2 mph - N/A   Overcast
4:55 PM 39.7 °F 32.7 °F 35.1 °F 83% 29.85 in 7.0 mi East 11.5 mph - N/A   Overcast
5:15 PM 39.0 °F 33.4 °F 33.8 °F 82% 29.85 in 7.0 mi East 8.1 mph - N/A   Overcast
5:35 PM 38.8 °F 32.6 °F 33.4 °F 81% 29.86 in 7.0 mi East 9.2 mph - N/A   Overcast
5:55 PM 38.7 °F 32.9 °F 33.3 °F 81% 29.87 in 7.0 mi East 8.1 mph - N/A   Overcast
6:15 PM 38.7 °F 32.9 °F 33.3 °F 81% 29.87 in 7.0 mi ESE 8.1 mph - N/A   Overcast
6:35 PM 38.7 °F 32.9 °F 33.1 °F 80% 29.87 in 10.0 mi ESE 8.1 mph - N/A   Overcast
6:55 PM 38.5 °F 32.7 °F 33.1 °F 81% 29.87 in 10.0 mi East 8.1 mph - N/A   Overcast
7:15 PM 38.1 °F 32.9 °F 33.1 °F 82% 29.88 in 7.0 mi East 6.9 mph - N/A   Overcast
7:35 PM 37.8 °F 32.5 °F 32.9 °F 83% 29.89 in 7.0 mi East 6.9 mph - N/A   Overcast
7:55 PM 37.4 °F 32.1 °F 32.9 °F 84% 29.90 in 10.0 mi ENE 6.9 mph - N/A   Overcast
8:15 PM 36.7 °F 28.0 °F 32.9 °F 86% 29.90 in 7.0 mi ENE 13.8 mph - N/A   Overcast
8:35 PM 36.0 °F 29.0 °F 32.5 °F 87% 29.90 in 7.0 mi ENE 9.2 mph - N/A   Overcast
8:55 PM 35.4 °F 27.8 °F 32.2 °F 88% 29.90 in 7.0 mi ENE 10.4 mph - N/A   Overcast
9:15 PM 34.9 °F 27.7 °F 32.0 °F 89% 29.91 in 7.0 mi East 9.2 mph - N/A   Overcast
9:35 PM 34.2 °F 26.8 °F 31.8 °F 91% 29.91 in 7.0 mi ENE 9.2 mph - N/A   Overcast
9:55 PM 33.1 °F 25.5 °F 31.5 °F 94% 29.91 in 5.0 mi East 9.2 mph - N/A   Mostly Cloudy
10:15 PM 32.0 °F 25.6 °F 30.4 °F 94% 29.91 in 5.0 mi ENE 6.9 mph - N/A   Scattered Clouds
10:35 PM 33.8 °F 27.7 °F 32.0 °F 93% 29.94 in 5.0 mi East 6.9 mph - N/A   Mostly Cloudy
10:55 PM 34.0 °F 26.0 °F 32.0 °F 92% 29.91 in 5.0 mi ENE 10.4 mph - N/A   Overcast
11:15 PM 33.8 °F 27.0 °F 32.0 °F 93% 29.93 in 5.0 mi East 8.1 mph - N/A   Overcast
11:35 PM 33.4 °F 25.9 °F 32.0 °F 94% 29.93 in 5.0 mi East 9.2 mph - N/A   Overcast
11:55 PM 33.4 °F 26.6 °F 31.8 °F 94% 29.95 in 5.0 mi ESE 8.1 mph - N/A   Overcast